Richmond, VA

2:30 PM EST on December 08, 2019 (GMT -0500)
Richmond International

Weather History for KRIC - October, 2019

Change the Weather History Date:

Wednesday, October 16, 2019

  Actual Average Record
Temperature  
Mean Temperature 57 °F 60 °F  
Max Temperature 64 °F 71 °F 90 °F (1897)
Min Temperature 50 °F 48 °F 32 °F (1939)
Degree Days  
Heating Degree Days 8 7  
Month to date heating degree days 27 76  
Since 1 July heating degree days 27 105  
Cooling Degree Days 0 1  
Month to date cooling degree days 70 29  
Year to date cooling degree days 2040 1533  
Growing Degree Days 7 (Base 50)    
Moisture  
Dew Point 56 °F    
Average Humidity 90    
Maximum Humidity 100    
Minimum Humidity 54    
Precipitation  
Precipitation 1.30 in 0.09 in 0.85 in (1964)
Month to date precipitation 2.02 1.54  
Year to date precipitation 35.17 35.66  
Snow  
Snow 0.00 in 0.00 in 0.00 in (2002)
Month to date snowfall 0.0 0.0  
Since 1 July snowfall 0.0 0.0  
Snow Depth 0.00 in    
Sea Level Pressure  
Sea Level Pressure 29.73 in    
Wind  
Wind Speed 7 mph ()    
Max Wind Speed 28 mph    
Max Gust Speed 39 mph    
Visibility 4.9 miles    
Events Fog , Rain    
T = Trace of Precipitation, MM = Missing Value Source: Averaged Metar Reports

Daily Weather History Graph

Daily Weather History Graph

Search for Another Location

Airport or City:

Astronomy

Oct. 16, 2019 Rise Set
Actual Time 7:18 AM EDT 6:31 PM EDT
Civil Twilight 6:51 AM EDT 6:57 PM EDT
Nautical Twilight 6:21 AM EDT 7:27 PM EDT
Astronomical Twilight 5:51 AM EDT 7:57 PM EDT
Moon 8:25 PM EDT (10/16) 9:44 AM EDT (10/16)
Length of Visible Light 12h 05m
Length of Day
11h 12m
Waning Gibbous, 93% of the Moon is Illuminated
Oct 16
Waning Gibbous
Oct 21
Last Quarter
Oct 27
New
Nov 4
First Quarter
Nov 12
Full

Hourly Weather History & Observations

Time (EDT) Temp. Dew Point Humidity Pressure Visibility Wind Dir Wind Speed Gust Speed Precip Events Conditions
12:54 AM 55.9 °F 54.0 °F 93% 30.02 in 10.0 mi ESE 4.6 mph - N/A   Mostly Cloudy
1:54 AM 57.0 °F 55.9 °F 96% 30.00 in 6.0 mi SE 6.9 mph - N/A   Mostly Cloudy
2:54 AM 57.0 °F 55.0 °F 93% 29.97 in 6.0 mi SE 4.6 mph - N/A   Mostly Cloudy
3:54 AM 57.0 °F 55.9 °F 96% 29.94 in 5.0 mi SSE 4.6 mph - N/A   Mostly Cloudy
4:04 AM 57.0 °F 55.9 °F 96% 29.93 in 5.0 mi South 4.6 mph - N/A   Mostly Cloudy
4:32 AM 57.0 °F 57.0 °F 100% 29.92 in 4.0 mi SE 3.5 mph - N/A   Overcast
4:54 AM 57.9 °F 57.0 °F 97% 29.92 in 4.0 mi SE 4.6 mph - N/A   Overcast
5:15 AM 57.9 °F 57.0 °F 97% 29.90 in 2.5 mi SE 5.8 mph - N/A   Overcast
5:54 AM 57.0 °F 55.9 °F 96% 29.90 in 3.0 mi Calm Calm - N/A   Overcast
6:54 AM 59.0 °F 57.9 °F 96% 29.91 in 4.0 mi SSW 5.8 mph - N/A   Overcast
7:15 AM 59.0 °F 57.9 °F 96% 29.89 in 4.0 mi South 5.8 mph - 0.00 in Rain Light Rain
8:11 AM 60.1 °F 57.9 °F 93% 29.85 in 2.5 mi Calm Calm - 0.01 in Rain Rain
8:22 AM 60.1 °F 57.9 °F 93% 29.85 in 1.5 mi Calm Calm - 0.04 in Rain Rain
8:35 AM 59.0 °F 59.0 °F 100% 29.84 in 3.0 mi SSE 3.5 mph - 0.08 in Rain Light Rain
8:54 AM 57.9 °F 57.0 °F 97% 29.83 in 4.0 mi SE 3.5 mph - 0.15 in Rain Light Rain
9:28 AM 59.0 °F 57.9 °F 96% 29.78 in 2.5 mi East 3.5 mph - 0.06 in Rain Rain
9:41 AM 59.0 °F 57.9 °F 96% 29.77 in 3.0 mi East 3.5 mph - 0.09 in Rain Light Rain
9:54 AM 60.1 °F 57.9 °F 93% 29.77 in 2.0 mi East 4.6 mph - 0.11 in Rain Light Rain
10:04 AM 60.1 °F 59.0 °F 96% 29.75 in 2.5 mi ESE 4.6 mph - 0.02 in Rain Light Rain
10:54 AM 62.1 °F 61.0 °F 96% 29.71 in 4.0 mi SSE 11.5 mph - 0.06 in Rain Light Rain
11:32 AM 63.0 °F 61.0 °F 93% 29.67 in 1.5 mi South 16.1 mph 24.2 mph 0.04 in Rain Light Rain
11:54 AM 63.0 °F 61.0 °F 93% 29.65 in 4.0 mi SSE 13.8 mph - 0.06 in Rain Light Rain
12:21 PM 63.0 °F 62.1 °F 97% 29.61 in 1.5 mi SSE 12.7 mph - 0.04 in Rain Rain
12:36 PM 63.0 °F 62.1 °F 97% 29.59 in 5.0 mi SSE 12.7 mph - 0.07 in Rain Light Rain
12:54 PM 64.0 °F 63.0 °F 96% 29.58 in 4.0 mi South 10.4 mph - 0.07 in Rain Light Rain
1:09 PM 64.0 °F 63.0 °F 96% 29.55 in 2.5 mi South 11.5 mph - 0.00 in Rain Light Rain
1:17 PM 64.0 °F 63.0 °F 96% 29.60 in 1.0 mi WSW 23.0 mph 39.1 mph 0.02 in Rain Heavy Rain
1:21 PM 60.1 °F 60.1 °F 100% 29.59 in 0.5 mi WNW 24.2 mph 39.1 mph 0.09 in Fog , Rain Heavy Rain
1:30 PM 57.9 °F 55.9 °F 93% 29.60 in 1.5 mi WNW 19.6 mph 31.1 mph 0.36 in Rain Rain
1:46 PM 55.9 °F 54.0 °F 93% 29.59 in 1.5 mi NW 15.0 mph 31.1 mph 0.53 in Rain Light Rain
1:54 PM 55.9 °F 54.0 °F 93% 29.60 in 2.5 mi NW 13.8 mph - 0.59 in Rain Light Rain
2:25 PM 55.9 °F 54.0 °F 93% 29.55 in 6.0 mi NNW 6.9 mph - 0.15 in Rain Light Rain
2:54 PM 55.9 °F 55.0 °F 97% 29.57 in 7.0 mi WNW 8.1 mph - 0.19 in Rain Light Rain
3:54 PM 59.0 °F 57.0 °F 93% 29.55 in 10.0 mi West 5.8 mph - 0.03 in   Mostly Cloudy
4:54 PM 61.0 °F 55.9 °F 83% 29.54 in 10.0 mi West 11.5 mph - N/A   Scattered Clouds
5:54 PM 61.0 °F 55.9 °F 83% 29.55 in 10.0 mi WNW 12.7 mph - N/A   Scattered Clouds
6:54 PM 59.0 °F 55.0 °F 87% 29.57 in 10.0 mi WNW 9.2 mph - N/A   Partly Cloudy
7:54 PM 57.9 °F 44.1 °F 60% 29.61 in 10.0 mi NW 23.0 mph 36.8 mph N/A   Partly Cloudy
8:54 PM 55.0 °F 42.1 °F 62% 29.62 in 10.0 mi WNW 12.7 mph - N/A   Clear
9:54 PM 55.0 °F 42.1 °F 62% 29.65 in 10.0 mi West 12.7 mph - N/A   Clear
10:54 PM 54.0 °F 39.9 °F 59% 29.67 in 10.0 mi WNW 13.8 mph 21.9 mph N/A   Clear
11:54 PM 53.1 °F 37.0 °F 55% 29.69 in 10.0 mi WNW 13.8 mph 21.9 mph N/A   Clear